Location: Sungai Juaw
(2.6833°N, 113.5333°E)
Time: 22:30:42
(UTC+00:00)

ARIANE 5 R/B - Pass Details

Date: 04 August 2024
Orbit: 747 x 793 km, 98.8° (Epoch: 19 September)

Event Time Altitude Azimuth Distance (km) Brightness Sun altitude
Rises 21:01:33 0° 21° (NNE) 3,277 6.4 -20.7°
Reaches altitude 10° 21:03:56 10° 26° (NNE) 2,350 5.6 -20.1°
Maximum altitude 21:08:59 53° 103° (ESE) 968 3.3 -19.0°
Drops below altitude 10° 21:14:01 10° 178° (S) 2,346 4.8 -17.8°
Sets 21:16:22 0° 183° (S) 3,270 5.5 -17.2°
